THOR ABLESTAR DEB, 152

Orbit data source: Space-Track

THOR ABLESTAR DEB, 152 is space debris in LEO originally from a launch on Thu, 29 Jun 1961 UTC launched from the Air Force Eastern Test Range (AFETR). Debris objects in space refer to the collection of defunct objects orbiting the Earth. Examples of debris include non-operational satellites, rocket bodies, and fragments generated from explosions, collisions, or faulty payload assembly.

Loading next visibility...
THOR ABLESTAR DEB details
Identifier
152, 1961-015AN
Orbit
LEO
Last TLE update1 day ago
Origin
Flag of USUSAF SSD (US)
ManufacturerUnknown
MissionSpacecraft
Bus & MotorUnknown
MassUnknown
Launch date (UTC)
1961-06-29 (64 years ago)
Launch vehicleUnknown
Launch site
Air Force Eastern Test Range (AFETR)
Object type
Payload
Rocket body
Debris
Shape & HBRUnknown
Radar Cross SectionMedium (>0.1 m² and <1 m²)

Expand to show TLE details & history

TLE from 1 day ago
0 THOR ABLESTAR DEB
1 00152U 61015AN  25042.58162155  .00000545  00000-0  31421-3 0  9995
2 00152  66.5942 129.6950 0149550 172.9431 187.3812 14.10958117256858
Epoch: 2025-02-11T13:57Z
Definitive object data (Epoch: 2025-02-11T13:57:32.101Z)
Latitude-0.00008°
Longitude138.42683°
Altitude965.505 km
Speed7.315 km/s
True Right ascension08h 38m 46s
True Declination0° 00' 00"
Sunlit
Object was in full shadow at TLE epoch
Visualization TLE readout
Latitude9.49923°
Longitude-48.31588°
Altitude749.353 km
Speed7.537 km/s
Apparent Right ascension23h 08m 28s
Apparent Declination-29° 37' 20"
Sunlit
Object is in daylight
Visualization observer readout
Local Sidereal Time17:05:40
Azimuth113.184° SE
Elevation-18.985°
Doppler factor1
Orbital elements
Apogee altitude962.66 km
Perigee altitude746.332 km
Semi-major axis7,232.633 km
Eccentricity0.014955
Inclination66.5942°
RAAN129.695°
Arg. of periapsis172.9431°
True anomaly187.16505°
Mean anomaly187.3812°
Eccentric anomaly187.27273°
Mean motion3.52857 °/min
BSTAR0.00031421
Orbital period102.02 mins
Loading maneuver chart data...

THOR ABLESTAR DEB Visibility forecast

Observer location: undefined°, undefined

Span
Click to sort rows by Start time (UTC) header in descending order
Start Az.
Max El. time (UTC)
Max El. Az.
Max El.
End time (UTC)
End Az.
10 mins2025-02-12 16:01:33.497Z338.857° N2025-02-12 16:06:33.497Z55.468° ENE39.79°2025-02-12 16:11:33.497Z135.505° SSE
5 mins2025-02-12 17:48:33.497Z285.492° WNW2025-02-12 17:50:33.497Z259.782° W16.862°2025-02-12 17:53:33.497Z220.283° SW
10 mins2025-02-13 06:55:33.497Z197.64° SSW2025-02-13 06:59:33.497Z138.896° SSE43.678°2025-02-13 07:05:33.497Z33.195° NE
7 mins2025-02-13 08:42:33.497Z280.73° WNW2025-02-13 08:45:33.497Z318.367° NNW20.008°2025-02-13 08:49:33.497Z2.49° NNE
|